Starlink 32342

operational
NORAD ID: 61217 Int'l Des: 2024-171 Owner: SPXS Country: US Constellation: starlink
LEOCIRCULAR

Starlink 32342について

説明を読み込み中...

リアルタイム位置

3D地球を読み込み中...

次回通過

高度履歴

Altitude vs Time

uPlot chart will show altitude changes over time

軌道要素

1 61217U 24171T 25258.61312399 -.00002305 00000-0 -65733-4 0 9998
2 61217 53.1611 55.6456 0000765 100.1227 259.9860 15.30207384 56472
Epoch: Sep 15, 2025 • Age: 10 hours

現在のステータス

高度 486.4 km
速度 7.62 km/s
衛星直下点 -34.56°S, 107.21°W
打ち上げ日 Sep 20, 2024
運用期間 0.9 years
タイプ internet

技術仕様

分類 Payload
質量 730.00 kg
乾燥質量 700.00 kg
総質量 730.00 kg
長さ 0.30 m
直径 4.10 m
スパン 29.00 m
形状 Box + pan
製造者 SPXS
バスタイプ Starlink V2M
フェーズステータス In Orbit
所有者/国 SPXS/US

大規模コンステレーション

Loading constellations...